Nellis AFB, NV

12:07 AM PDT on May 26, 2018 (GMT -0700)
Nellis Air Force Base

Weather History for KLSV - September, 2013

Change the Weather History Date:

Wednesday, September 11, 2013

  Actual Average Record
Temperature  
Mean Temperature 76 °F -  
Max Temperature 82 °F 94 °F 104 °F (2015)
Min Temperature 69 °F 69 °F 64 °F (2000)
Cooling Degree Days 10    
Growing Degree Days 26 (Base 50)    
Moisture  
Dew Point 62 °F    
Average Humidity 67    
Maximum Humidity 88    
Minimum Humidity 42    
Precipitation  
Precipitation 0.00 in - - ()
Sea Level Pressure  
Sea Level Pressure 29.96 in    
Wind  
Wind Speed 6 mph (NW)    
Max Wind Speed 14 mph    
Max Gust Speed -    
Visibility 10 miles    
Events Rain , Thunderstorm    
Averages and records for this station are not official NWS values.
T = Trace of Precipitation, MM = Missing Value Source: NWS Daily Summary

Daily Weather History Graph

Daily Weather History Graph

Search for Another Location

Airport or City:

Astronomy

Sep. 11, 2013 Rise Set
Actual Time 6:19 AM PDT 6:52 PM PDT
Civil Twilight 5:53 AM PDT 7:18 PM PDT
Nautical Twilight 5:23 AM PDT 7:49 PM PDT
Astronomical Twilight 4:52 AM PDT 8:20 PM PDT
Moon 12:40 PM PDT (9/11) 11:04 PM PDT (9/11)
Length of Visible Light 13h 24m
Length of Day
12h 33m
Waxing Crescent, 40% of the Moon is Illuminated
Sep 11
Waxing Crescent
Sep 12
First Quarter
Sep 19
Full
Sep 26
Last Quarter
Oct 4
New

Hourly Weather History & Observations

Time (PDT) Temp. Heat Index Dew Point Humidity Pressure Visibility Wind Dir Wind Speed Gust Speed Precip Events Conditions
12:58 AM 74.7 °F - 65.1 °F 72% 29.83 in 10.0 mi NE 4.6 mph - N/A   Overcast
1:58 AM 74.5 °F - 65.7 °F 74% 29.83 in 10.0 mi Calm Calm - N/A   Scattered Clouds
2:58 AM 75.2 °F - 64.8 °F 70% 29.91 in 10.0 mi WNW 9.2 mph - N/A   Overcast
3:04 AM 75.2 °F - 62.6 °F 65% 29.91 in 10.0 mi WNW 12.7 mph - N/A Rain Light Rain
3:05 AM 75.2 °F - 62.6 °F 65% 29.92 in 10.0 mi WNW 12.7 mph - N/A Rain Light Rain
3:24 AM 73.4 °F - 62.6 °F 69% 29.92 in 10.0 mi West 8.1 mph - N/A   Partly Cloudy
3:34 AM 73.4 °F - 62.6 °F 69% 29.92 in 10.0 mi WNW 5.8 mph - N/A Rain Light Rain
3:47 AM 71.6 °F - 62.6 °F 73% 29.92 in 10.0 mi NW 5.8 mph - N/A   Partly Cloudy
3:49 AM 71.6 °F - 62.6 °F 73% 29.92 in 10.0 mi WNW 5.8 mph - N/A Rain Light Rain
3:58 AM 71.4 °F - 63.0 °F 75% 29.93 in 10.0 mi WNW 3.5 mph - 0.00 in Rain Light Rain
4:26 AM 71.6 °F - 62.6 °F 73% 29.92 in 10.0 mi South 5.8 mph - N/A   Scattered Clouds
4:58 AM 70.3 °F - 63.3 °F 78% 29.87 in 10.0 mi South 8.1 mph - 0.00 in   Clear
5:58 AM 72.0 °F - 60.4 °F 67% 29.88 in 10.0 mi ENE 4.6 mph - N/A   Partly Cloudy
6:58 AM 70.7 °F - 62.2 °F 75% 29.90 in 10.0 mi West 3.5 mph - N/A   Overcast
7:31 AM 71.6 °F - 62.6 °F 73% 29.96 in 10.0 mi WNW 8.1 mph - N/A Rain Light Rain
7:51 AM 71.6 °F - 64.4 °F 78% 29.97 in 10.0 mi NW 6.9 mph - N/A Rain Light Rain
8:01 AM 69.8 °F - 64.4 °F 83% 29.97 in 10.0 mi NW 5.8 mph - N/A Rain Light Rain
8:11 AM 69.8 °F - 64.4 °F 83% 29.97 in 10.0 mi NW 6.9 mph - N/A Rain Light Rain
8:16 AM 69.8 °F - 66.2 °F 88% 29.98 in 10.0 mi NNW 5.8 mph - N/A Rain Light Rain
8:34 AM 71.6 °F - 64.4 °F 78% 29.99 in 10.0 mi NNW 5.8 mph - N/A   Scattered Clouds
8:37 AM 71.6 °F - 62.6 °F 73% 29.99 in 10.0 mi NNW 3.5 mph - N/A   Light Drizzle
8:52 AM 71.6 °F - 62.6 °F 73% 29.99 in 10.0 mi North 3.5 mph - N/A   Partly Cloudy
10:56 AM 75.2 °F - 60.8 °F 61% 30.00 in 9.0 mi Calm Calm - N/A   Scattered Clouds
11:45 AM 75.2 °F - 60.8 °F 61% 30.00 in 10.0 mi Calm Calm - N/A   Light Drizzle
11:55 AM 77.0 °F - 59.0 °F 54% 30.00 in 10.0 mi NNE 2.3 mph - N/A   Scattered Clouds
11:56 AM 77.0 °F - 59.0 °F 54% 30.00 in 10.0 mi North 1.2 mph - N/A   Scattered Clouds
12:00 PM 77.0 °F - 60.8 °F 57% 30.00 in 10.0 mi NNE 4.6 mph - N/A   Light Drizzle
12:09 PM 75.2 °F - 60.8 °F 61% 30.00 in 10.0 mi NNE 4.6 mph - N/A   Mostly Cloudy
12:14 PM 75.2 °F - 60.8 °F 61% 30.00 in 10.0 mi NNE 4.6 mph - N/A   Light Drizzle
12:22 PM 75.2 °F - 60.8 °F 61% 30.00 in 10.0 mi NE 6.9 mph - N/A   Scattered Clouds
12:56 PM 77.0 °F - 60.8 °F 57% 30.00 in 10.0 mi NE 6.9 mph - N/A   Scattered Clouds
1:56 PM 78.8 °F - 60.8 °F 54% 29.98 in 10.0 mi East 8.1 mph - N/A   Partly Cloudy
2:56 PM 80.6 °F 81.1 °F 59.0 °F 48% 29.96 in 10.0 mi ESE 8.1 mph - N/A   Partly Cloudy
3:56 PM 82.4 °F 82.0 °F 57.2 °F 42% 29.94 in 10.0 mi SE 5.8 mph - N/A   Scattered Clouds
4:56 PM 80.6 °F 81.1 °F 59.0 °F 48% 29.95 in 10.0 mi ESE 3.5 mph - N/A   Mostly Cloudy
4:59 PM 80.6 °F 81.5 °F 60.8 °F 51% 29.95 in 10.0 mi ESE 3.5 mph - N/A   Light Drizzle
5:14 PM 78.8 °F - 62.6 °F 57% 29.95 in 6.0 mi SW 11.5 mph - N/A Rain Light Rain
5:22 PM 77.0 °F - 60.8 °F 57% 29.96 in 5.0 mi WSW 5.8 mph - N/A Rain Light Rain
5:27 PM 75.2 °F - 62.6 °F 65% 29.96 in 8.0 mi SW 5.8 mph - N/A Rain Light Rain
5:34 PM 75.2 °F - 62.6 °F 65% 29.96 in 10.0 mi West 4.6 mph - N/A Thunderstorm Overcast
5:56 PM 75.2 °F - 59.0 °F 57% 29.98 in 10.0 mi WNW 13.8 mph - N/A Thunderstorm Overcast
6:09 PM 73.4 °F - 59.0 °F 61% 29.97 in 10.0 mi West 4.6 mph - N/A Thunderstorm Light Drizzle
6:24 PM 73.4 °F - 60.8 °F 65% 29.97 in 10.0 mi South 8.1 mph - N/A   Mostly Cloudy
6:40 PM 71.6 °F - 62.6 °F 73% 29.97 in 10.0 mi SW 10.4 mph - N/A Rain Light Rain
6:56 PM 69.8 °F - 62.6 °F 78% 29.97 in 10.0 mi South 4.6 mph - N/A Rain Light Rain
7:22 PM 71.6 °F - 62.6 °F 73% 29.97 in 10.0 mi SW 3.5 mph - N/A   Overcast
7:56 PM 71.6 °F - 62.6 °F 73% 29.96 in 10.0 mi NNW 3.5 mph - N/A   Mostly Cloudy
8:56 PM 71.6 °F - 62.6 °F 73% 29.97 in 10.0 mi ENE 5.8 mph - N/A   Overcast
9:56 PM 71.6 °F - 64.4 °F 78% 29.98 in 10.0 mi NE 9.2 mph - N/A   Overcast
10:56 PM 71.6 °F - 64.4 °F 78% 29.98 in 10.0 mi NE 4.6 mph - N/A   Mostly Cloudy
11:56 PM 71.6 °F - 64.4 °F 78% 29.99 in 10.0 mi ENE 8.1 mph - N/A   Overcast